TimeCST,TemperatureF,Dew PointF,Humidity,Sea Level PressureIn,VisibilityMPH,Wind Direction,Wind SpeedMPH,Gust SpeedMPH,PrecipitationIn,Events,Conditions,WindDirDegrees,DateUTC
12:53 AM,30.0,23.0,75,30.30,10.0,Calm,Calm,-,N/A,,Clear,0,2013-03-03 06:53:00
1:53 AM,28.0,23.0,81,30.29,10.0,NE,3.5,-,N/A,,Clear,40,2013-03-03 07:53:00
2:53 AM,26.1,24.1,92,30.29,10.0,North,3.5,-,N/A,,Clear,10,2013-03-03 08:53:00
3:53 AM,25.0,23.0,92,30.29,10.0,Calm,Calm,-,N/A,,Clear,0,2013-03-03 09:53:00
4:53 AM,25.0,21.9,88,30.30,9.0,Calm,Calm,-,N/A,,Clear,0,2013-03-03 10:53:00
6:53 AM,24.1,21.9,91,30.32,10.0,SW,3.5,-,N/A,,Clear,230,2013-03-03 12:53:00
7:53 AM,33.1,28.9,85,30.32,10.0,Calm,Calm,-,N/A,,Clear,0,2013-03-03 13:53:00
8:53 AM,36.0,21.0,55,30.33,10.0,South,4.6,-,N/A,,Clear,180,2013-03-03 14:53:00
9:53 AM,39.0,21.9,50,30.32,10.0,Variable,3.5,-,N/A,,Clear,0,2013-03-03 15:53:00
10:53 AM,42.1,24.1,49,30.32,10.0,Variable,4.6,-,N/A,,Clear,0,2013-03-03 16:53:00
11:53 AM,45.0,24.1,44,30.29,10.0,Variable,3.5,-,N/A,,Clear,0,2013-03-03 17:53:00
12:53 PM,46.0,23.0,40,30.26,10.0,South,4.6,-,N/A,,Clear,190,2013-03-03 18:53:00
1:53 PM,50.0,21.9,33,30.22,10.0,Variable,4.6,-,N/A,,Clear,0,2013-03-03 19:53:00
2:53 PM,52.0,24.1,34,30.20,10.0,West,3.5,-,N/A,,Clear,280,2013-03-03 20:53:00
3:53 PM,52.0,25.0,35,30.18,10.0,Variable,3.5,-,N/A,,Clear,0,2013-03-03 21:53:00
4:53 PM,51.1,26.1,38,30.15,10.0,SSE,3.5,-,N/A,,Clear,150,2013-03-03 22:53:00
5:53 PM,48.9,26.1,41,30.16,10.0,South,8.1,-,N/A,,Clear,170,2013-03-03 23:53:00
6:53 PM,44.1,28.9,55,30.15,10.0,SSE,4.6,-,N/A,,Clear,160,2013-03-04 00:53:00
7:53 PM,42.1,28.9,60,30.15,10.0,SE,3.5,-,N/A,,Clear,140,2013-03-04 01:53:00
8:53 PM,42.1,28.9,60,30.14,10.0,SSE,6.9,-,N/A,,Clear,150,2013-03-04 02:53:00
9:53 PM,39.9,28.0,63,30.13,10.0,SE,5.8,-,N/A,,Clear,140,2013-03-04 03:53:00
10:53 PM,41.0,28.0,60,30.12,10.0,SSE,6.9,-,N/A,,Clear,160,2013-03-04 04:53:00
11:53 PM,42.1,28.9,60,30.11,10.0,SSE,6.9,-,N/A,,Clear,160,2013-03-04 05:53:00